Location: Plymouth
(43.7570°N, 71.6890°W)
Time: 23:39:56
(UTC-04:00)

Daily predictions for brighter satellites

Satellite Brightness Start Highest point End
(mag) Time Altitude Azimuth Time Altitude Azimuth Time Altitude Azimuth
H-2A R/B 3.6 20:59:45 10° ESE 21:03:55 24° ENE 21:08:08 10° NNE
Cosmos 1741 Rocket 4.0 21:01:43 10° S 21:06:59 69° ESE 21:12:16 10° NNE
Cosmos 1818 3.7 21:02:50 10° NW 21:08:19 82° SW 21:13:44 10° SSE
Cosmos 2263 Rocket 4.0 21:07:09 10° ESE 21:08:50 11° E 21:10:30 10° ENE
YAOGAN 6 2.6 21:06:02 10° SSE 21:09:40 88° E 21:13:23 10° NNW
Meteor 1-21 Rocket 4.5 21:05:43 10° SSE 21:11:10 50° E 21:16:32 10° NNE
ATLAS 5 CENTAUR R/B 1.8 21:07:26 10° SSW 21:12:05 84° SE 21:17:12 10° NE
Cosmos 1726 3.5 21:11:15 10° NNE 21:14:17 24° ENE 21:17:17 10° SE
RESURS DK-1 3.3 21:13:08 10° N 21:17:01 36° ENE 21:20:53 10° SE
Cosmos 1300 4.3 21:14:32 10° NNE 21:17:32 21° ENE 21:20:30 10° SE
Cosmos 1076 Rocket 3.6 21:15:37 10° S 21:19:55 62° E 21:24:15 10° NNE
Cosmos 1802 Rocket 4.2 21:14:10 10° N 21:20:13 58° E 21:26:15 10° SSE
Cosmos 1408 Rocket 4.0 21:19:16 10° SSE 21:23:18 41° E 21:27:23 10° NNE
Cosmos 2237 Rocket 4.2 21:22:26 10° NW 21:26:47 24° WSW 21:31:08 10° SSW
ERBS 3.5 21:26:48 10° NNW 21:29:57 34° NE 21:33:05 10° ESE
Cosmos 1939 Rocket 4.4 21:27:40 10° SSW 21:31:19 34° W 21:35:04 10° NNW
Cosmos 2221 3.1 21:28:20 10° NNW 21:32:40 60° W 21:36:59 10° S
Cosmos 1340 Rocket 4.3 21:29:57 10° SW 21:33:46 40° WNW 21:37:38 10° N
CZ-4B DEB 4.3 21:32:31 10° SSW 21:35:11 30° W 21:37:53 10° NNW
Cosmos 1603 3.9 21:29:49 10° NNW 21:35:28 64° ENE 21:40:30 13° SE
Meteor 1-29 4.2 21:34:26 10° N 21:37:43 44° WNW 21:41:01 10° SW
Tiangong 1 0.6 21:36:50 10° W 21:39:38 73° S 21:42:15 11° E
Cosmos 1814 Rocket 4.5 21:35:06 10° N 21:40:19 49° ENE 21:44:41 14° SE
Cosmos 371 Rocket 3.8 21:38:40 10° N 21:43:21 48° ENE 21:47:08 15° SE
Cosmos 1674 3.1 21:40:54 10° SSW 21:44:37 62° W 21:48:21 10° N
MetOp-A 4.2 21:40:42 10° SSE 21:46:03 84° WSW 21:51:27 10° NNW
Cosmos 2016 Rocket 4.0 21:40:34 10° N 21:46:52 78° E 21:52:55 11° SSE
ARGOS 3.2 21:42:43 11° SSE 21:47:58 80° ENE 21:53:25 10° NNW
Cosmos 841 Rocket 4.4 21:45:04 10° N 21:49:57 37° ENE 21:53:48 15° SE
Cosmos 1943 3.8 21:45:09 10° NNW 21:50:33 44° ENE 21:54:57 15° SE
CZ-3B R/B 4.1 21:47:24 10° SW 21:50:38 76° SE 22:02:20 10° NE
Cosmos 1455 4.5 21:49:01 10° NE 21:50:43 13° ENE 21:52:26 10° E
Lacrosse 5 1.9 21:46:15 10° NW 21:51:20 89° SW 21:55:19 17° SE
SPOT 5 2.9 21:47:02 13° SSE 21:51:25 78° ENE 21:56:34 10° N
Cosmos 1763 Rocket 3.9 21:46:44 10° N 21:51:42 47° ENE 21:55:27 17° SE
Cosmos 1908 4.3 21:48:10 10° NNW 21:51:52 43° W 21:55:32 10° SSW
SL-16 R/B 3.5 21:46:55 10° NW 21:52:00 35° WSW 21:57:03 10° SSW
SPOT 1/Viking Rocket 3.6 21:54:30 15° SSE 21:58:42 68° ENE 22:03:50 10° N
Cosmos 1766 Rocket 3.8 21:56:20 10° SSW 22:00:37 71° W 22:04:59 10° N
KORONAS-FOTON 4.4 21:58:05 10° SSW 22:01:50 58° W 22:05:35 10° N
Cosmos 1242 Rocket 4.2 21:59:58 10° NNW 22:03:18 32° W 22:06:37 10° SSW
Abrixas rocket 2.2 22:00:46 10° WNW 22:04:02 79° NNE 22:06:04 21° ESE
Cosmos 1328 Rocket 3.5 22:00:28 10° N 22:04:49 74° E 22:07:53 19° SSE
USA 245 3.6 22:07:27 17° S 22:10:02 61° W 22:14:17 10° NNW
Cosmos 1515 Rocket 3.6 22:06:26 10° N 22:10:45 61° E 22:13:23 22° SSE
Cosmos 2233 Rocket 4.3 22:05:07 10° N 22:11:12 53° ENE 22:15:24 20° SSE
Cosmos 1151 Rocket 3.5 22:07:00 10° N 22:11:17 48° ENE 22:13:43 23° SE
Landsat 7 4.0 22:08:34 20° SSE 22:11:46 60° ENE 22:16:28 10° N
IGS 5A 4.2 22:11:57 21° SE 22:14:10 39° ENE 22:18:04 10° N
USA 234 3.2 22:08:42 10° NE 22:15:14 68° SE 22:21:44 10° SW
H-2A R/B 3.0 22:13:53 20° ESE 22:16:10 34° ENE 22:20:00 10° N
Cosmos 1743 Rocket 3.4 22:13:15 16° S 22:16:43 78° E 22:21:03 10° N
Cosmos 2228 Rocket 3.2 22:14:19 10° N 22:18:57 86° W 22:22:04 20° S
Cosmos 1703 4.0 22:22:24 27° SE 22:23:52 38° E 22:27:35 10° NNE
SL-08 RB Rocket 4.3 22:21:53 16° S 22:25:26 53° W 22:29:58 10° NNW
Terra 2.0 22:24:00 24° SE 22:26:42 59° ENE 22:31:23 10° N
Meteor 1-11 4.3 22:23:46 17° S 22:28:16 69° E 22:34:04 10° NNE
H-2A ROCKET BODY 4.1 22:29:23 10° SSW 22:33:52 24° SE 22:46:23 10° E
Cosmos 1503 Rocket 4.3 22:32:18 25° SSE 22:34:53 45° ESE 22:39:49 10° NNE
Meteor 1-27 4.3 22:36:25 10° N 22:42:16 88° W 22:45:45 25° S
H-2A R/B 2.7 22:39:05 18° S 22:42:55 52° W 22:48:15 10° NNW
Cosmos 2123 Rocket 4.5 22:36:54 10° SSW 22:42:57 58° WNW 22:49:06 10° N
Cosmos 304 Rocket 4.0 22:40:00 10° NNW 22:44:45 59° ENE 22:46:52 31° SE
Cosmos 1626 2.0 22:44:37 38° S 22:45:55 73° E 22:49:39 10° NNE
Cosmos 2058 2.9 22:44:53 28° S 22:47:03 90° E 22:51:18 10° N
Cosmos 1726 4.2 22:46:38 10° NW 22:49:28 21° W 22:52:04 11° SW
CZ-4B R/B 4.0 22:44:33 10° NNE 22:49:35 43° E 22:51:29 31° SE
Cosmos 540 Rocket 3.7 22:46:09 10° NNW 22:51:16 60° ENE 22:53:35 31° SE
Cosmos 2263 Rocket 2.1 22:46:57 14° SSW 22:51:48 84° ESE 22:57:25 10° NNE
Cosmos 1300 4.5 22:49:58 10° NNW 22:53:13 26° W 22:55:37 15° SW
RESURS DK-1 4.3 22:51:40 10° NW 22:54:51 21° WSW 22:56:54 15° SW
Spot 4 4.0 22:55:05 33° SE 22:57:08 62° ENE 23:01:57 10° N
Cosmos 2285 Rocket 4.0 22:51:58 10° NNW 22:58:22 80° ENE 23:01:42 30° SSE
COSMOS 2406 4.5 22:54:28 10° N 22:59:29 31° NE 23:02:50 18° ESE
Sich 1 3.8 22:59:55 31° ESE 23:00:33 33° E 23:04:24 10° NNE
ERBS 3.7 23:03:38 10° WNW 23:06:28 26° SW 23:06:28 26° SW
deb Chang Zheng 4 3.5 23:03:23 10° NNE 23:07:47 87° ESE 23:09:31 36° SSW
PSLV R/B 3.0 23:09:21 75° WNW 23:09:21 75° WNW 23:12:07 10° NNW
ALOS 2 4.4 23:10:54 18° E 23:12:24 21° ENE 23:15:41 10° NNE
DELTA 2 DEB (DPAF) 4.2 23:11:06 43° SE 23:12:29 70° ENE 23:16:56 10° N
Cosmos 1707 Rocket 3.7 23:08:16 10° N 23:12:43 61° E 23:13:54 44° SE
Cosmos 2151 4.1 23:11:00 18° SW 23:13:48 40° WNW 23:17:53 10° N
Tiangong 1 3.0 23:12:26 10° W 23:13:23 18° W 23:13:23 18° W
CZ-2C R/B 4.3 23:12:52 23° ESE 23:15:34 35° ENE 23:20:38 10° N
Cosmos 1354 Rocket 4.1 23:16:06 22° SSW 23:19:29 74° WNW 23:24:45 10° NNE
Cosmos 1844 Rocket 3.3 23:24:43 33° SE 23:25:34 35° ESE 23:30:35 10° NE
Cosmos 1455 2.8 23:23:00 10° NNW 23:26:45 49° W 23:27:33 41° SW
CZ-4C R/B 2.4 23:28:14 41° SSE 23:29:17 47° ESE 23:34:54 10° NE
Cosmos 1666 Rocket 3.5 23:28:28 52° SSE 23:29:25 72° E 23:33:52 10° NNE
Cosmos 1464 Rocket 3.9 23:23:51 10° N 23:30:02 87° W 23:32:45 36° S
Cosmos 1933 4.5 23:29:38 10° NNE 23:33:19 31° ENE 23:33:50 30° E
Lacrosse 5 3.8 23:30:41 10° W 23:33:38 16° WSW 23:34:30 15° SW
Cosmos 1869 3.2 23:33:30 10° N 23:37:28 78° W 23:37:55 66° SSW
Cosmos 1933 Rocket 4.5 23:38:43 32° E 23:38:59 32° E 23:42:51 10° NNE
Cosmos 1805 Rocket 3.9 23:39:13 38° SW 23:40:35 57° W 23:44:53 10° N
Cosmos 1633 Rocket 2.9 23:44:55 61° S 23:45:39 87° E 23:50:02 10° N
Cosmos 1315 Rocket 4.4 23:46:28 23° E 23:46:28 23° E 23:49:16 10° NE
CZ-4C R/B 3.9 23:46:43 46° SW 23:47:31 54° W 23:51:51 10° NNW
Cosmos 967 Rocket 4.5 23:41:28 10° NW 23:47:49 72° WSW 23:50:08 41° S
SL-24 R/B - RUBIN 2 4.2 23:43:35 10° NNW 23:49:09 65° NE 23:50:52 40° ESE
Cosmos 1400 Rocket 3.2 23:49:33 51° E 23:49:38 51° E 23:53:40 10° NNE
H-2A R/B 3.8 23:51:01 20° WSW 23:52:14 22° W 23:55:35 10° NW
SME Rocket 3.5 23:52:51 42° SW 23:53:26 46° W 23:57:52 10° NNW
